Погода в Порзднях

Россия / Ивановская область     57°00′17″N   42°33′00″E
темп.,
°C
ветер,
м/с
пор.,
м/с
влажн.,
%
обл.,
%
осадки,
мм/ч
давл.,
гПа
погр.,
м
16 мая, вс
вс1600:00+15ю311974 0.0 1011349
03:00+13ю38968 0.0 1012170
06:00+15ю310880 0.0 1012343
09:00+19юз596627 0.0 1013848
12:00+22юз58510 0.0 10131538
15:00+23зюз58482 0.0 10132094
18:00+19ююз357198 0.1 1012147
21:00+15юз358517 0.2 101474
17 мая, пн
пн1700:00+13юз24890 0.0 101569
03:00+12зюз22945 0.0 101636
06:00+14зюз1386100 0.0 101798
09:00+20ю11649 0.0 1017576
12:00+24юз234935 0.0 10171279
15:00+26вюв134445 0.0 10161558
18:00+22в366533 0.0 1016288
21:00+17в3783100 0.4 1016101
18 мая, вт
вт1800:00+16в3893100 0.2 1016125
03:00+16юв3693100 0.2 1016116
06:00+17юв288599 0.0 1016173
09:00+22вюв4761100 0.0 1016352
12:00+26юв5846100 0.0 10151049
15:00+28юв583533 0.0 10142277
18:00+24юв41053100 0.0 1014485
21:00+19вюв4137247 0.0 1014259
19 мая, ср
ср1900:00+17юв41274100 0.0 1014239
03:00+16вюв413736 0.0 1014239
06:00+18юв515613 0.0 1014344
09:00+23юв510465 0.0 1014483
12:00+28юв611360 0.0 10132008
15:00+29юв611380 0.0 10132747
18:00+25юв511520 0.0 1012820
21:00+21вюв6157059 0.0 1011574
20 мая, чт
чт2000:00+19вюв516773 0.0 1011502
03:00+17вюв410804 0.0 1010291
06:00+18юв5137566 0.0 1010478
09:00+22ююв69600 0.0 10101084
12:00+22ююв61069100 0.7 10091487
15:00+18ююв498660 2.3 1011701
18:00+20ю487072 0.6 1010801
21:00+15ю4108727 0.9 1012335